[[{"header":{"parameterUnit":"m.s-1","parameterCategory":1,"la1":30.2991,"la2":30.254,"lo1":-89.0895,"lo2":-89.0444,"dy":0.0017,"dx":0.0017,"nx":28,"ny":28,"refTime":"2025-03-14T09:00:00:Z","depth":0,"parameterNumber":2,"parameterNumberName":"U-component_of_WINDS"},"data":[0,0,0,0,0,0,0,0,0,0,0,0,0,0,0,0,0,0,0,0,0,0,0,0,0,0,0,0,0,0,0,0,0,0,0,0,0,0,0,0,0,0,0,0,0,0,0,0,0,0,0,0,0,0,0,0,0,0,-2.5679,-2.568,0,-2.5768,-2.577,-2.5771,-2.5767,-2.5766,-2.5765,-2.5764,-2.5857,-2.5861,-2.5864,0,0,0,0,0,0,0,0,0,0,0,0,0,-2.5509,-2.5512,-2.5679,-2.568,-2.5681,-2.5768,-2.577,-2.5771,-2.5768,-2.5766,-2.5765,-2.5763,-2.5856,-2.586,-2.5865,0,0,0,0,0,0,0,0,0,0,0,0,0,-2.5589,-2.5513,-2.5679,-2.569,-2.5692,-2.5768,-2.577,-2.5771,-2.5768,-2.5766,-2.5764,-2.5762,-2.5854,-2.586,-2.5865,-2.5936,0,0,-2.5882,-2.5884,0,0,0,0,0,0,0,0,-2.5584,-2.5595,-2.5688,-2.569,-2.5692,-2.5755,-2.5744,-2.5827,-2.5768,-2.5739,-2.5764,-2.5761,-2.5825,-2.5833,-2.5853,-2.5941,-2.5945,-2.5882,-2.5886,-2.5888,-2.589,0,0,0,0,0,0,0,-2.5579,-2.5591,-2.5715,-2.5689,-2.5692,-2.5692,-2.5701,-2.5759,-2.5791,-2.5742,-2.5742,-2.5752,-2.5826,-2.5848,-2.5856,-2.5946,-2.5882,-2.5887,-2.589,-2.5893,-2.6097,-2.6099,0,0,0,0,0,0,-2.5571,-2.5587,-2.5712,-2.5717,-2.5632,-2.5696,-2.5707,-2.5737,-2.5791,-2.5797,-2.5754,-2.5752,-2.584,-2.5849,-2.5859,-2.5945,-2.5888,-2.5893,-2.5896,-2.6095,-2.6097,-2.61,0,0,0,0,0,0,-2.5567,-2.5582,-2.5708,-2.5652,-2.5668,-2.5701,-2.5735,-2.5739,-2.5762,-2.58,-2.5806,-2.577,-2.5839,-2.5851,-2.5917,-2.5949,-2.5896,-2.5901,-2.6092,-2.6096,-2.6099,-2.6119,0,0,0,0,0,0,-2.5562,-2.558,-2.5607,-2.5653,-2.5671,-2.5764,-2.5737,-2.5742,-2.5771,-2.5769,-2.5817,-2.5823,-2.5838,-2.5909,-2.5923,-2.5955,-2.5905,-2.609,-2.6094,-2.6098,-2.6116,-2.6123,-2.6129,0,0,0,0,0,-2.5556,-2.561,-2.5608,-2.5623,-2.5705,-2.5766,-2.5776,-2.5792,-2.5774,-2.5801,-2.5826,-2.5822,-2.5943,-2.5916,-2.5931,-2.5966,-2.6088,-2.6093,-2.6097,-2.6113,-2.6121,-2.6128,0,0,0,0,0,0,-2.5567,-2.5616,-2.5615,-2.5685,-2.5721,-2.5765,-2.58,-2.58,-2.5843,-2.5839,-2.5857,-2.5868,-2.5934,-2.5957,-2.5925,-2.6038,-2.6013,-2.6021,-2.602,-2.6028,-2.6035,-2.6027,-2.5909,0,0,0,0,0,-2.5578,-2.5622,-2.5663,-2.5721,-2.5739,-2.5766,-2.5794,-2.5802,-2.5841,-2.5856,-2.5886,-2.5924,-2.5971,-2.6001,-2.6046,-2.612,-2.613,-2.6152,-2.6158,-2.6163,-2.6169,-2.621,-2.622,-2.6116,-2.6116,-2.6116,0,0,-2.56,-2.5632,-2.5659,-2.5724,-2.5753,-2.5799,-2.5779,-2.5829,-2.5864,-2.5864,-2.5927,-2.5951,-2.5995,-2.6065,-2.6097,-2.6086,-2.6201,-2.6169,-2.6173,-2.6177,-2.6216,-2.6226,-2.6234,-2.6119,-2.6118,-2.6118,0,0,-2.5664,-2.5693,-2.5744,-2.5774,-2.5818,-2.5836,-2.5849,-2.5893,-2.5908,-2.5972,-2.5974,-2.6016,-2.6096,-2.6128,-2.6154,-2.6232,-2.623,-2.6246,-2.6279,-2.6318,-2.6326,-2.6334,-2.6361,-2.637,-2.6253,-2.6253,-2.6253,0,-2.5686,-2.5755,-2.5771,-2.5821,-2.5849,-2.5852,-2.5904,-2.5932,-2.599,-2.6009,-2.5996,-2.6097,-2.6127,-2.6204,-2.6223,-2.6245,-2.626,-2.624,-2.6324,-2.6331,-2.6338,-2.6364,-2.6374,-2.6254,-2.6254,-2.6254,-2.6254,0,-2.578,-2.5828,-2.5864,-2.5918,-2.5951,-2.6002,-2.6026,-2.6058,-2.6065,-2.6085,-2.615,-2.6187,-2.6239,-2.6259,-2.6266,-2.6337,-2.6329,-2.632,-2.6295,-2.635,-2.6374,-2.6384,-2.6257,-2.6256,-2.6256,-2.6255,0,0,-2.5851,-2.5914,-2.5927,-2.5952,-2.6002,-2.604,-2.6092,-2.6142,-2.6169,-2.6209,-2.6253,-2.6322,-2.6314,-2.6344,-2.6355,-2.639,-2.6448,-2.6376,-2.6378,-2.6387,-2.6529,-2.6534,-2.6545,-2.6448,-2.645,-2.6452,-2.6524,0,-2.5919,-2.6009,-2.6026,-2.6105,-2.615,-2.6154,-2.6199,-2.6235,-2.6256,-2.6297,-2.6321,-2.6368,-2.6355,-2.6373,-2.6408,-2.6433,-2.6476,-2.6429,-2.6489,-2.6491,-2.6475,-2.6558,-2.6563,-2.663,-2.6534,-2.6536,-2.6537,0,-2.601,-2.6051,-2.6135,-2.6179,-2.6198,-2.6238,-2.6287,-2.6327,-2.6368,-2.6381,-2.6415,-2.6422,-2.6477,-2.6452,-2.6528,-2.6495,-2.6521,-2.6538,-2.6541,-2.6546,-2.6516,-2.6563,-2.6652,-2.6661,-2.6553,-2.6551,-2.655,0,-2.6052,-2.6129,-2.6189,-2.621,-2.6264,-2.6292,-2.6316,-2.6355,-2.6385,-2.6428,-2.6448,-2.6497,-2.6523,-2.6562,-2.6583,-2.6562,-2.6657,-2.6633,-2.6669,-2.6668,-2.6687,-2.6685,-2.6779,-2.6707,-2.6707,-2.6706,-2.6706,0,-2.6125,-2.6176,-2.6208,-2.6245,-2.6302,-2.6322,-2.6378,-2.6402,-2.6437,-2.6479,-2.6487,-2.6526,-2.6552,-2.6596,-2.6613,-2.6673,-2.6685,-2.6697,-2.6701,-2.6695,-2.6694,-2.6711,-2.6706,-2.6709,-2.6709,-2.6708,-2.6708,0,-2.6181,-2.6205,-2.627,-2.6315,-2.6328,-2.6368,-2.6408,-2.6444,-2.6465,-2.6518,-2.6532,-2.6566,-2.6617,-2.6642,-2.6707,-2.6719,-2.6786,-2.6788,-2.6772,-2.6773,-2.6806,-2.6802,-2.6914,-2.6929,-2.6848,-2.6848,-2.6849,0,-2.6224,-2.6263,-2.6313,-2.6341,-2.6366,-2.6411,-2.6441,-2.6463,-2.6494,-2.6545,-2.6576,-2.6628,-2.667,-2.6753,-2.6783,-2.6833,-2.6835,-2.6871,-2.6842,-2.6836,-2.6834,-2.683,-2.6834,-2.6875,-2.6876,-2.6876,-2.6877,0,-2.63,-2.631,-2.6353,-2.64,-2.6436,-2.6475,-2.6513,-2.6536,-2.6564,-2.6599,-2.6652,-2.6685,-2.675,-2.6802,-2.6854,-2.688,-2.6883,-2.6886,-2.6896,-2.689,-2.6879,-2.6884,-2.6784,-2.6883,-2.6882,-2.6882,-2.6881,-2.6881,-2.635,-2.6385,-2.6425,-2.6473,-2.6504,-2.6539,-2.6576,-2.6602,-2.6645,-2.67,-2.6711,-2.6766,-2.6808,-2.6878,-2.6906,-2.695,-2.6942,-2.6958,-2.6962,-2.6965,-2.6966,-2.6873,-2.696,-2.696,-2.696,-2.696,-2.696,0,-2.6424,-2.6451,-2.6495,-2.6547,-2.6585,-2.6585,-2.6628,-2.666,-2.6708,-2.6747,-2.6789,-2.6849,-2.69,-2.6935,-2.6986,-2.7015,-2.7018,-2.7028,-2.7025,-2.7031,-2.6971,-2.6955,-2.7025,-2.7025,-2.7025,-2.7025,-2.7025,-2.7025,-2.6467,-2.6526,-2.6541,-2.6615,-2.6642,-2.6696,-2.672,-2.6753,-2.6784,-2.6851,-2.6893,-2.6915,-2.6953,-2.7007,-2.7054,-2.7063,-2.7081,-2.7091,-2.71,-2.7042,-2.7035,-2.7028,-2.7014,-2.7095,-2.7095,-2.7156,-2.7156,-2.7157]},{"header":{"parameterUnit":"m.s-1","parameterCategory":1,"la1":30.2991,"la2":30.254,"lo1":-89.0895,"lo2":-89.0444,"dy":0.0017,"dx":0.0017,"nx":28,"ny":28,"refTime":"2025-03-14T09:00:00:Z","depth":0,"parameterNumber":3,"parameterNumberName":"V-component_of_WINDS"},"data":[0,0,0,0,0,0,0,0,0,0,0,0,0,0,0,0,0,0,0,0,0,0,0,0,0,0,0,0,0,0,0,0,0,0,0,0,0,0,0,0,0,0,0,0,0,0,0,0,0,0,0,0,0,0,0,0,0,0,2.7666,2.7665,0,2.7627,2.7626,2.7626,2.7615,2.7615,2.7615,2.7615,2.7574,2.7572,2.7571,0,0,0,0,0,0,0,0,0,0,0,0,0,2.7732,2.7731,2.7666,2.7665,2.7665,2.7627,2.7626,2.7626,2.7615,2.7615,2.7615,2.7615,2.7574,2.7573,2.7571,0,0,0,0,0,0,0,0,0,0,0,0,0,2.7699,2.773,2.7666,2.7655,2.7653,2.7627,2.7626,2.7626,2.7614,2.7615,2.7615,2.7615,2.7575,2.7573,2.7571,2.7552,0,0,2.7565,2.7564,0,0,0,0,0,0,0,0,2.7701,2.7696,2.7657,2.7656,2.7654,2.7626,2.7634,2.7601,2.7614,2.7629,2.7615,2.7616,2.7591,2.7588,2.7579,2.755,2.7549,2.7565,2.7564,2.7563,2.7562,0,0,0,0,0,0,0,2.7703,2.7698,2.765,2.7656,2.7655,2.7652,2.7648,2.7628,2.7609,2.7628,2.7627,2.7623,2.759,2.7581,2.7578,2.7548,2.7565,2.7563,2.7562,2.7561,2.7505,2.7505,0,0,0,0,0,0,2.7707,2.77,2.7652,2.7649,2.7679,2.7651,2.7646,2.7635,2.7609,2.7605,2.7622,2.7622,2.7584,2.7581,2.7577,2.7555,2.7563,2.7561,2.756,2.7506,2.7505,2.7505,0,0,0,0,0,0,2.7709,2.7703,2.7653,2.7674,2.7668,2.7649,2.7637,2.7634,2.7625,2.7605,2.7601,2.7617,2.7585,2.758,2.7559,2.7554,2.756,2.7558,2.7506,2.7506,2.7505,2.7511,0,0,0,0,0,0,2.7711,2.7704,2.7696,2.7674,2.7667,2.7636,2.7636,2.7633,2.7622,2.7621,2.7599,2.7595,2.7584,2.7562,2.7557,2.7551,2.7557,2.7506,2.7506,2.7505,2.7511,2.7511,2.7511,0,0,0,0,0,2.7713,2.7698,2.7696,2.769,2.7657,2.7636,2.7631,2.762,2.7621,2.7614,2.7602,2.7596,2.7555,2.756,2.7555,2.7548,2.7507,2.7506,2.7505,2.7512,2.7511,2.7511,0,0,0,0,0,0,2.7718,2.7695,2.7692,2.7669,2.7655,2.7634,2.7624,2.7619,2.7603,2.7603,2.7589,2.7584,2.7565,2.7554,2.756,2.753,2.7531,2.7529,2.7538,2.7537,2.7537,2.754,2.7555,0,0,0,0,0,2.7717,2.7702,2.7682,2.7664,2.7657,2.7642,2.7632,2.7625,2.7609,2.7602,2.7588,2.7573,2.7557,2.7546,2.753,2.751,2.7506,2.7503,2.7503,2.7503,2.7501,2.7492,2.7491,2.7503,2.7503,2.7503,0,0,2.7713,2.7699,2.769,2.7665,2.7653,2.7638,2.7637,2.762,2.7609,2.76,2.758,2.757,2.7552,2.7532,2.7523,2.7523,2.7497,2.7502,2.7502,2.75,2.7491,2.749,2.7489,2.7502,2.7502,2.7502,0,0,2.77,2.7687,2.7672,2.7661,2.7643,2.7633,2.763,2.761,2.7603,2.7584,2.7577,2.7565,2.7537,2.7525,2.7515,2.7502,2.7497,2.7497,2.7495,2.7486,2.7485,2.7484,2.7481,2.748,2.7496,2.7496,2.7496,0,2.7697,2.7675,2.7665,2.765,2.764,2.7632,2.7618,2.7607,2.7585,2.7578,2.7579,2.7546,2.7533,2.7512,2.7509,2.7501,2.7498,2.7499,2.7486,2.7485,2.7484,2.7481,2.7479,2.7496,2.7496,2.7496,2.7496,0,2.7674,2.7659,2.7649,2.763,2.7619,2.7604,2.7592,2.7582,2.7577,2.7568,2.755,2.7535,2.7517,2.7511,2.7505,2.749,2.7491,2.7489,2.7489,2.7484,2.748,2.7479,2.7496,2.7496,2.7496,2.7496,0,0,2.766,2.7638,2.7634,2.7627,2.7608,2.7596,2.7582,2.7566,2.7559,2.7545,2.7533,2.7512,2.7511,2.75,2.7493,2.7486,2.7478,2.7485,2.7484,2.7485,2.7463,2.7465,2.7463,2.7475,2.7475,2.7475,2.7465,0,2.7645,2.762,2.7612,2.7591,2.7578,2.7573,2.7561,2.7549,2.7541,2.7529,2.752,2.7505,2.7504,2.7498,2.7491,2.7481,2.7474,2.7481,2.7465,2.7465,2.747,2.7461,2.7462,2.7453,2.7463,2.7463,2.7463,0,2.7623,2.7611,2.7589,2.7575,2.757,2.7559,2.7545,2.7534,2.7521,2.7516,2.7506,2.75,2.7486,2.7488,2.747,2.7476,2.7469,2.7463,2.7463,2.7461,2.7463,2.7459,2.745,2.7449,2.746,2.7461,2.7461,0,2.7617,2.7594,2.7579,2.7573,2.7556,2.7549,2.7542,2.7529,2.7521,2.7509,2.7504,2.749,2.7482,2.7472,2.7464,2.7466,2.7447,2.7448,2.7443,2.7443,2.7438,2.7439,2.7429,2.7434,2.7434,2.7434,2.7434,0,2.76,2.7588,2.7577,2.7567,2.7554,2.7546,2.7532,2.7525,2.7514,2.7504,2.7498,2.7489,2.7478,2.7468,2.7461,2.7448,2.7444,2.744,2.7438,2.7441,2.7441,2.7436,2.7436,2.7434,2.7434,2.7434,2.7434,0,2.759,2.7582,2.7566,2.7552,2.7549,2.754,2.7528,2.752,2.7513,2.75,2.7497,2.7486,2.7473,2.7464,2.7447,2.7443,2.743,2.7428,2.7434,2.7433,2.743,2.743,2.7415,2.7414,2.742,2.742,2.742,0,2.758,2.7571,2.7558,2.7551,2.7544,2.7533,2.7526,2.7518,2.751,2.7497,2.7491,2.7478,2.7468,2.7449,2.7439,2.7427,2.7425,2.7421,2.7423,2.7427,2.7426,2.7427,2.7427,2.7421,2.7421,2.7421,2.7421,0,2.7565,2.7562,2.7551,2.7541,2.7532,2.7523,2.7513,2.7508,2.7499,2.7491,2.7479,2.7472,2.7456,2.7445,2.7433,2.7425,2.7422,2.742,2.7419,2.7421,2.7425,2.7424,2.7434,2.742,2.742,2.742,2.742,2.742,2.7555,2.7547,2.7538,2.7527,2.752,2.7512,2.7504,2.7497,2.7487,2.7475,2.7471,2.746,2.745,2.7433,2.7427,2.7418,2.7417,2.7415,2.7414,2.7414,2.7415,2.7427,2.7415,2.7415,2.7415,2.7415,2.7415,0,2.754,2.7534,2.7524,2.7513,2.7505,2.7504,2.7494,2.7488,2.7478,2.7469,2.746,2.7448,2.7437,2.7428,2.7418,2.7413,2.7411,2.741,2.741,2.7409,2.7415,2.7418,2.7412,2.7412,2.7412,2.7412,2.7412,2.7412,2.7531,2.7519,2.7516,2.7501,2.7495,2.7484,2.7479,2.7472,2.7466,2.7453,2.7445,2.7439,2.7431,2.7421,2.7411,2.7409,2.7406,2.7406,2.7403,2.7408,2.7408,2.7409,2.7412,2.7405,2.7405,2.7398,2.7398,2.7398]}]]